Retour au catalogue

STARLINK-35095

ActifCommunicationsVLEO
NORAD 65425·PAYLOAD·🇺🇸 United States

Lancé Aug 31, 2025 depuis Cape Canaveral Space Force Station

Loading…

Prochains Passages (prochaines 24 heures)

TLE

FraisSource: CelesTrak SupGP

Époque: Sep 14, 2026, 22:36 UTC

1 65425C 25192X   26257.94215278  .00058175  00000+0  18692-2 0  2571
2 65425  53.1586  72.1696 0001243  77.3952 346.1761 15.31699581    13

Suivez STARLINK-35095 en temps réel avec AllMySat

Download on the App Store